QPF
0.00 0.00 0.00 0.00 0.00 0.00 0.00 0.00 0.00 0.00 0.00 0.00 0.00 0.00 0.00 0.01 0.02 0.02 0.03 0.05 0.07 0.09 0.10 0.10 0.10 0.09 0.07 0.05 0.05 0.06 0.06 0.07 0.05 0.01 0.00 0.00 0.00 0.00 0.00 0.00 0.00 0.01 0.02
0.00 0.00 0.00 0.00 0.00 0.00 0.00 0.00 0.00 0.00 0.00 0.00 0.00 0.00 0.00 0.01 0.01 0.02 0.02 0.03 0.04 0.06 0.06 0.06 0.05 0.05 0.04 0.04 0.03 0.03 0.03 0.02 0.03 0.02 0.00 0.00 0.00 0.00 0.00 0.00 0.00 0.01 0.02
0.00 0.00 0.00 0.00 0.00 0.00 0.00 0.00 0.00 0.00 0.00 0.00 0.00 0.00 0.01 0.02 0.01 0.00 0.01 0.01 0.01 0.02 0.02 0.01 0.02 0.02 0.03 0.04 0.03 0.02 0.01 0.01 0.02 0.02 0.01 0.00 0.00 0.00 0.00 0.00 0.01 0.01 0.01
0.00 0.00 0.00 0.00 0.00 0.00 0.00 0.00 0.00 0.00 0.00 0.00 0.00 0.00 0.00 0.03 0.05 0.02 0.00 0.00 0.00 0.00 0.00 0.00 0.00 0.01 0.04 0.05 0.03 0.03 0.01 0.01 0.01 0.02 0.01 0.01 0.02 0.02 0.01 0.01 0.01 0.02 0.02
0.00 0.00 0.00 0.00 0.00 0.00 0.00 0.00 0.00 0.00 0.00 0.00 0.00 0.00 0.00 0.03 0.18 0.13 0.02 0.00 0.00 0.00 0.00 0.00 0.00 0.01 0.03 0.06 0.04 0.03 0.03 0.03 0.03 0.02 0.02 0.03 0.05 0.05 0.04 0.02 0.01 0.02 0.03
0.00 0.00 0.00 0.00 0.00 0.00 0.00 0.00 0.00 0.00 0.00 0.00 0.00 0.00 0.00 0.02 0.18 0.16 0.03 0.00 0.00 0.00 0.00 0.00 0.00 0.00 0.02 0.04 0.02 0.02 0.04 0.06 0.06 0.04 0.03 0.04 0.05 0.06 0.05 0.02 0.01 0.02 0.04
0.00 0.00 0.00 0.00 0.00 0.00 0.00 0.00 0.00 0.00 0.00 0.00 0.00 0.00 0.00 0.01 0.11 0.14 0.05 0.01 0.00 0.00 0.00 0.00 0.00 0.00 0.02 0.09 0.02 0.00 0.01 0.03 0.06 0.06 0.04 0.04 0.05 0.05 0.04 0.03 0.01 0.01 0.03
0.00 0.00 0.00 0.00 0.00 0.00 0.00 0.00 0.00 0.00 0.00 0.00 0.00 0.00 0.00 0.00 0.05 0.13 0.09 0.02 0.00 0.00 0.00 0.00 0.00 0.01 0.04 0.11 0.02 0.00 0.01 0.02 0.04 0.06 0.06 0.05 0.04 0.04 0.04 0.02 0.01 0.01 0.01
0.00 0.00 0.00 0.00 0.00 0.00 0.00 0.00 0.00 0.00 0.00 0.00 0.00 0.00 0.00 0.00 0.01 0.08 0.12 0.03 0.00 0.00 0.00 0.00 0.00 0.03 0.04 0.06 0.01 0.01 0.02 0.02 0.02 0.04 0.04 0.03 0.02 0.02 0.03 0.01 0.01 0.00 0.01
0.00 0.00 0.00 0.00 0.00 0.00 0.00 0.00 0.00 0.00 0.00 0.00 0.00 0.00 0.00 0.00 0.00 0.04 0.12 0.05 0.01 0.00 0.00 0.00 0.01 0.03 0.03 0.04 0.01 0.02 0.05 0.04 0.02 0.02 0.01 0.01 0.01 0.01 0.01 0.01 0.01 0.01 0.01
0.00 0.00 0.00 0.00 0.00 0.00 0.00 0.00 0.00 0.00 0.00 0.00 0.00 0.00 0.00 0.00 0.00 0.03 0.10 0.08 0.03 0.00 0.00 0.00 0.01 0.03 0.02 0.02 0.02 0.03 0.08 0.06 0.02 0.02 0.01 0.01 0.00 0.00 0.01 0.01 0.01 0.01 0.01
0.00 0.00 0.00 0.00 0.00 0.00 0.00 0.00 0.00 0.00 0.00 0.00 0.00 0.00 0.00 0.00 0.00 0.04 0.08 0.05 0.03 0.00 0.00 0.00 0.01 0.01 0.00 0.01 0.01 0.02 0.03 0.02 0.02 0.02 0.01 0.01 0.01 0.01 0.01 0.01 0.01 0.01 0.01
0.00 0.00 0.00 0.00 0.00 0.00 0.00 0.00 0.00 0.00 0.00 0.00 0.00 0.00 0.00 0.00 0.02 0.06 0.05 0.02 0.01 0.01 0.00 0.00 0.00 0.00 0.00 0.00 0.00 0.00 0.00 0.01 0.02 0.02 0.02 0.02 0.01 0.01 0.01 0.01 0.00 0.00 0.01
0.00 0.00 0.00 0.00 0.00 0.00 0.00 0.00 0.00 0.00 0.01 0.02 0.02 0.01 0.01 0.01 0.09 0.15 0.08 0.02 0.01 0.00 0.00 0.00 0.00 0.00 0.00 0.00 0.00 0.00 0.00 0.01 0.02 0.02 0.02 0.01 0.01 0.00 0.01 0.01 0.01 0.01 0.01
0.00 0.00 0.00 0.00 0.00 0.00 0.00 0.00 0.00 0.00 0.02 0.04 0.03 0.03 0.04 0.07 0.12 0.12 0.07 0.04 0.02 0.01 0.00 0.00 0.00 0.00 0.00 0.00 0.00 0.00 0.00 0.00 0.00 0.00 0.01 0.01 0.01 0.00 0.01 0.01 0.01 0.01 0.01
0.00 0.00 0.00 0.00 0.00 0.00 0.00 0.00 0.00 0.00 0.00 0.01 0.01 0.02 0.03 0.06 0.06 0.05 0.04 0.02 0.01 0.01 0.00 0.00 0.00 0.00 0.00 0.00 0.00 0.00 0.00 0.00 0.00 0.00 0.00 0.00 0.01 0.01 0.01 0.01 0.01 0.01 0.02
0.00 0.00 0.00 0.00 0.00 0.00 0.00 0.00 0.00 0.00 0.00 0.00 0.00 0.01 0.02 0.03 0.02 0.03 0.03 0.01 0.00 0.00 0.00 0.00 0.00 0.00 0.00 0.00 0.00 0.00 0.00 0.00 0.00 0.00 0.00 0.00 0.00 0.01 0.01 0.01 0.01 0.02 0.03
0.00 0.00 0.00 0.00 0.00 0.00 0.00 0.00 0.00 0.00 0.00 0.00 0.00 0.00 0.01 0.01 0.01 0.02 0.01 0.00 0.00 0.00 0.01 0.01 0.01 0.00 0.00 0.00 0.00 0.00 0.00 0.00 0.00 0.00 0.00 0.00 0.00 0.01 0.01 0.01 0.02 0.03 0.04
0.00 0.00 0.00 0.00 0.00 0.00 0.00 0.00 0.00 0.00 0.00 0.00 0.00 0.00 0.00 0.00 0.00 0.00 0.00 0.00 0.01 0.01 0.01 0.02 0.01 0.01 0.01 0.00 0.00 0.00 0.00 0.00 0.00 0.00 0.00 0.00 0.00 0.00 0.01 0.01 0.02 0.03 0.04
0.00 0.00 0.00 0.00 0.00 0.00 0.00 0.00 0.00 0.00 0.00 0.00 0.00 0.00 0.01 0.00 0.00 0.00 0.00 0.00 0.01 0.01 0.01 0.02 0.02 0.02 0.01 0.01 0.00 0.00 0.00 0.00 0.00 0.00 0.00 0.00 0.00 0.00 0.01 0.01 0.01 0.02 0.04
0.00 0.00 0.00 0.00 0.00 0.00 0.00 0.00 0.00 0.00 0.00 0.00 0.00 0.00 0.01 0.00 0.00 0.00 0.00 0.01 0.01 0.02 0.02 0.02 0.02 0.02 0.02 0.02 0.01 0.00 0.00 0.00 0.00 0.00 0.00 0.00 0.00 0.00 0.00 0.01 0.01 0.02 0.04
0.00 0.00 0.00 0.00 0.00 0.00 0.00 0.00 0.00 0.00 0.00 0.00 0.00 0.00 0.00 0.00 0.00 0.00 0.00 0.00 0.01 0.02 0.02 0.03 0.03 0.03 0.03 0.03 0.02 0.01 0.00 0.00 0.00 0.00 0.00 0.00 0.00 0.00 0.00 0.00 0.01 0.02 0.03
0.00 0.00 0.00 0.00 0.00 0.00 0.00 0.00 0.00 0.00 0.00 0.00 0.00 0.00 0.00 0.00 0.00 0.00 0.00 0.00 0.01 0.01 0.01 0.02 0.02 0.02 0.03 0.04 0.03 0.03 0.02 0.01 0.00 0.00 0.00 0.00 0.00 0.00 0.00 0.00 0.00 0.01 0.03
0.00 0.00 0.00 0.00 0.00 0.00 0.00 0.00 0.00 0.00 0.00 0.00 0.00 0.00 0.00 0.00 0.00 0.00 0.00 0.00 0.00 0.01 0.01 0.02 0.02 0.03 0.03 0.04 0.04 0.03 0.03 0.01 0.00 0.00 0.00 0.00 0.00 0.00 0.00 0.00 0.00 0.01 0.02
0.00 0.00 0.00 0.00 0.00 0.00 0.00 0.00 0.00 0.00 0.00 0.00 0.00 0.00 0.00 0.00 0.00 0.00 0.00 0.00 0.00 0.00 0.01 0.01 0.02 0.03 0.03 0.03 0.04 0.04 0.04 0.03 0.02 0.00 0.00 0.00 0.00 0.00 0.00 0.00 0.00 0.00 0.01
0.00 0.00 0.00 0.00 0.00 0.00 0.00 0.00 0.00 0.00 0.00 0.00 0.00 0.00 0.00 0.00 0.00 0.00 0.00 0.00 0.01 0.00 0.00 0.00 0.01 0.02 0.02 0.03 0.03 0.03 0.04 0.03 0.03 0.01 0.00 0.00 0.00 0.00 0.00 0.00 0.00 0.00 0.00
MSLP
1033.08 1033.00 1032.87 1032.64 1032.32 1031.89 1031.36 1030.77 1030.12 1029.44 1028.74 1028.03 1027.30 1026.55 1025.77 1024.95 1024.09 1023.22 1022.36 1021.52 1020.73 1020.00 1019.33 1018.69 1018.06 1017.41 1016.69 1015.88 1014.97 1013.96 1012.89 1011.80 1010.73 1009.73 1008.84 1008.09 1007.46 1006.96 1006.54 1006.17 1005.82 1005.45 1005.04
1032.81 1032.74 1032.61 1032.39 1032.07 1031.65 1031.14 1030.56 1029.93 1029.27 1028.60 1027.92 1027.22 1026.51 1025.76 1024.98 1024.16 1023.31 1022.45 1021.59 1020.77 1019.98 1019.23 1018.51 1017.80 1017.08 1016.33 1015.51 1014.63 1013.69 1012.70 1011.70 1010.72 1009.79 1008.94 1008.18 1007.50 1006.90 1006.36 1005.86 1005.38 1004.89 1004.41
1032.59 1032.52 1032.39 1032.16 1031.84 1031.42 1030.91 1030.33 1029.70 1029.05 1028.39 1027.73 1027.07 1026.39 1025.69 1024.95 1024.18 1023.37 1022.54 1021.70 1020.86 1020.04 1019.24 1018.45 1017.68 1016.90 1016.10 1015.28 1014.42 1013.54 1012.64 1011.74 1010.85 1010.01 1009.20 1008.44 1007.71 1007.02 1006.35 1005.70 1005.06 1004.44 1003.85
1032.38 1032.32 1032.18 1031.95 1031.61 1031.17 1030.65 1030.06 1029.42 1028.77 1028.11 1027.45 1026.80 1026.15 1025.49 1024.80 1024.08 1023.33 1022.55 1021.75 1020.94 1020.12 1019.29 1018.47 1017.65 1016.83 1016.00 1015.17 1014.33 1013.50 1012.68 1011.87 1011.08 1010.31 1009.56 1008.81 1008.06 1007.29 1006.50 1005.71 1004.91 1004.14 1003.43
1032.15 1032.11 1031.97 1031.72 1031.36 1030.90 1030.36 1029.75 1029.10 1028.43 1027.75 1027.08 1026.42 1025.78 1025.13 1024.48 1023.81 1023.13 1022.41 1021.67 1020.91 1020.12 1019.32 1018.50 1017.66 1016.82 1015.98 1015.14 1014.32 1013.53 1012.77 1012.04 1011.34 1010.65 1009.96 1009.24 1008.48 1007.66 1006.80 1005.89 1004.96 1004.06 1003.23
1031.86 1031.84 1031.70 1031.45 1031.08 1030.60 1030.04 1029.41 1028.74 1028.04 1027.33 1026.63 1025.95 1025.29 1024.64 1024.00 1023.37 1022.73 1022.09 1021.42 1020.73 1020.01 1019.25 1018.46 1017.65 1016.81 1015.97 1015.13 1014.33 1013.56 1012.85 1012.18 1011.55 1010.94 1010.31 1009.64 1008.90 1008.08 1007.18 1006.21 1005.20 1004.20 1003.26
1031.50 1031.50 1031.37 1031.11 1030.73 1030.25 1029.68 1029.04 1028.35 1027.62 1026.88 1026.15 1025.42 1024.72 1024.05 1023.40 1022.78 1022.18 1021.59 1021.00 1020.38 1019.74 1019.06 1018.33 1017.56 1016.76 1015.93 1015.11 1014.31 1013.57 1012.88 1012.25 1011.67 1011.12 1010.55 1009.95 1009.26 1008.47 1007.58 1006.60 1005.56 1004.52 1003.51
1031.07 1031.07 1030.95 1030.69 1030.33 1029.85 1029.29 1028.65 1027.95 1027.21 1026.44 1025.66 1024.89 1024.15 1023.43 1022.76 1022.13 1021.54 1020.99 1020.45 1019.92 1019.36 1018.77 1018.12 1017.41 1016.65 1015.86 1015.06 1014.27 1013.53 1012.85 1012.24 1011.69 1011.17 1010.66 1010.12 1009.50 1008.78 1007.95 1007.01 1006.00 1004.95 1003.93
1030.55 1030.56 1030.44 1030.20 1029.85 1029.39 1028.85 1028.23 1027.54 1026.81 1026.03 1025.22 1024.41 1023.62 1022.86 1022.14 1021.49 1020.90 1020.37 1019.88 1019.41 1018.94 1018.43 1017.87 1017.24 1016.54 1015.80 1015.01 1014.23 1013.49 1012.79 1012.17 1011.62 1011.13 1010.65 1010.16 1009.61 1008.97 1008.22 1007.37 1006.43 1005.43 1004.43
1029.99 1029.99 1029.87 1029.64 1029.30 1028.88 1028.37 1027.79 1027.14 1026.43 1025.66 1024.85 1024.02 1023.19 1022.39 1021.64 1020.96 1020.36 1019.83 1019.37 1018.96 1018.56 1018.13 1017.65 1017.10 1016.47 1015.77 1015.02 1014.24 1013.48 1012.77 1012.12 1011.55 1011.04 1010.57 1010.11 1009.62 1009.05 1008.40 1007.64 1006.79 1005.88 1004.94
1029.38 1029.37 1029.25 1029.02 1028.71 1028.32 1027.86 1027.33 1026.73 1026.07 1025.34 1024.55 1023.73 1022.89 1022.07 1021.30 1020.59 1019.97 1019.45 1019.01 1018.64 1018.29 1017.93 1017.53 1017.06 1016.49 1015.84 1015.12 1014.35 1013.58 1012.84 1012.15 1011.53 1010.98 1010.49 1010.04 1009.57 1009.06 1008.48 1007.82 1007.07 1006.26 1005.40
1028.75 1028.73 1028.60 1028.39 1028.10 1027.75 1027.34 1026.87 1026.33 1025.73 1025.06 1024.33 1023.54 1022.72 1021.91 1021.13 1020.42 1019.79 1019.27 1018.84 1018.49 1018.18 1017.87 1017.53 1017.13 1016.63 1016.03 1015.34 1014.59 1013.81 1013.03 1012.30 1011.63 1011.03 1010.49 1010.01 1009.54 1009.05 1008.52 1007.93 1007.27 1006.55 1005.78
1028.10 1028.08 1027.96 1027.75 1027.49 1027.17 1026.81 1026.41 1025.94 1025.42 1024.82 1024.15 1023.43 1022.66 1021.88 1021.13 1020.42 1019.80 1019.28 1018.85 1018.51 1018.22 1017.95 1017.66 1017.30 1016.86 1016.31 1015.66 1014.94 1014.16 1013.37 1012.60 1011.87 1011.21 1010.62 1010.08 1009.58 1009.08 1008.57 1008.02 1007.42 1006.78 1006.10
1027.45 1027.44 1027.33 1027.15 1026.91 1026.63 1026.31 1025.96 1025.57 1025.12 1024.61 1024.02 1023.37 1022.68 1021.96 1021.25 1020.57 1019.96 1019.44 1019.01 1018.67 1018.39 1018.13 1017.86 1017.54 1017.14 1016.64 1016.04 1015.35 1014.59 1013.80 1013.01 1012.25 1011.55 1010.89 1010.30 1009.75 1009.21 1008.69 1008.15 1007.58 1006.99 1006.38
1026.80 1026.82 1026.74 1026.59 1026.38 1026.13 1025.86 1025.56 1025.22 1024.85 1024.41 1023.92 1023.36 1022.75 1022.10 1021.44 1020.81 1020.22 1019.71 1019.27 1018.92 1018.62 1018.35 1018.08 1017.77 1017.40 1016.95 1016.39 1015.75 1015.04 1014.28 1013.50 1012.74 1012.00 1011.31 1010.67 1010.06 1009.49 1008.93 1008.37 1007.81 1007.25 1006.69
1026.14 1026.22 1026.20 1026.09 1025.91 1025.70 1025.46 1025.20 1024.92 1024.60 1024.24 1023.83 1023.36 1022.83 1022.26 1021.67 1021.09 1020.53 1020.01 1019.57 1019.18 1018.85 1018.55 1018.25 1017.94 1017.58 1017.16 1016.65 1016.07 1015.41 1014.71 1013.99 1013.25 1012.53 1011.83 1011.17 1010.53 1009.92 1009.32 1008.74 1008.17 1007.61 1007.06
1025.50 1025.65 1025.69 1025.64 1025.51 1025.33 1025.13 1024.90 1024.66 1024.39 1024.09 1023.75 1023.35 1022.91 1022.42 1021.89 1021.36 1020.82 1020.31 1019.84 1019.42 1019.04 1018.69 1018.35 1018.01 1017.64 1017.23 1016.77 1016.25 1015.68 1015.06 1014.41 1013.74 1013.07 1012.41 1011.76 1011.12 1010.49 1009.87 1009.26 1008.67 1008.09 1007.55
1024.85 1025.10 1025.21 1025.22 1025.15 1025.01 1024.84 1024.64 1024.43 1024.20 1023.95 1023.66 1023.34 1022.97 1022.55 1022.09 1021.60 1021.09 1020.58 1020.09 1019.61 1019.17 1018.76 1018.36 1017.97 1017.59 1017.18 1016.75 1016.29 1015.80 1015.28 1014.73 1014.17 1013.58 1012.99 1012.39 1011.78 1011.17 1010.55 1009.93 1009.32 1008.73 1008.17
1024.20 1024.53 1024.74 1024.82 1024.80 1024.71 1024.57 1024.40 1024.21 1024.01 1023.80 1023.56 1023.30 1022.99 1022.64 1022.24 1021.80 1021.32 1020.81 1020.30 1019.78 1019.27 1018.79 1018.32 1017.88 1017.45 1017.03 1016.63 1016.22 1015.81 1015.39 1014.95 1014.51 1014.04 1013.54 1013.03 1012.48 1011.91 1011.32 1010.71 1010.10 1009.50 1008.92
1023.51 1023.94 1024.23 1024.39 1024.43 1024.39 1024.29 1024.14 1023.98 1023.80 1023.62 1023.43 1023.22 1022.97 1022.69 1022.35 1021.96 1021.51 1021.02 1020.49 1019.93 1019.37 1018.81 1018.27 1017.76 1017.29 1016.85 1016.45 1016.08 1015.73 1015.41 1015.09 1014.76 1014.41 1014.04 1013.63 1013.17 1012.68 1012.13 1011.56 1010.97 1010.37 1009.80
1022.79 1023.30 1023.67 1023.90 1024.01 1024.01 1023.95 1023.84 1023.70 1023.56 1023.41 1023.26 1023.10 1022.91 1022.69 1022.41 1022.08 1021.67 1021.20 1020.67 1020.09 1019.48 1018.87 1018.26 1017.69 1017.16 1016.69 1016.28 1015.93 1015.63 1015.38 1015.16 1014.94 1014.72 1014.47 1014.17 1013.82 1013.41 1012.95 1012.43 1011.88 1011.31 1010.75
1022.00 1022.59 1023.03 1023.33 1023.50 1023.57 1023.54 1023.47 1023.36 1023.25 1023.14 1023.03 1022.92 1022.80 1022.64 1022.43 1022.16 1021.80 1021.36 1020.85 1020.26 1019.63 1018.97 1018.31 1017.68 1017.09 1016.58 1016.15 1015.80 1015.54 1015.34 1015.19 1015.07 1014.96 1014.82 1014.64 1014.40 1014.09 1013.72 1013.28 1012.79 1012.27 1011.73
1021.13 1021.79 1022.30 1022.68 1022.91 1023.02 1023.05 1023.02 1022.95 1022.88 1022.81 1022.75 1022.69 1022.63 1022.54 1022.40 1022.19 1021.89 1021.50 1021.01 1020.44 1019.79 1019.11 1018.41 1017.73 1017.10 1016.55 1016.09 1015.73 1015.47 1015.30 1015.21 1015.15 1015.13 1015.09 1015.01 1014.88 1014.68 1014.40 1014.05 1013.65 1013.20 1012.72
1020.18 1020.91 1021.49 1021.93 1022.23 1022.41 1022.49 1022.50 1022.48 1022.45 1022.43 1022.41 1022.41 1022.41 1022.39 1022.31 1022.17 1021.93 1021.59 1021.14 1020.59 1019.95 1019.25 1018.53 1017.82 1017.15 1016.56 1016.06 1015.68 1015.42 1015.26 1015.19 1015.19 1015.22 1015.26 1015.28 1015.25 1015.15 1014.98 1014.73 1014.42 1014.06 1013.67
1019.16 1019.96 1020.61 1021.12 1021.49 1021.73 1021.87 1021.94 1021.97 1021.99 1022.02 1022.06 1022.11 1022.16 1022.20 1022.19 1022.10 1021.92 1021.63 1021.22 1020.69 1020.06 1019.37 1018.63 1017.89 1017.20 1016.57 1016.04 1015.64 1015.36 1015.20 1015.14 1015.17 1015.24 1015.35 1015.44 1015.50 1015.50 1015.44 1015.30 1015.10 1014.85 1014.56
1018.10 1018.96 1019.69 1020.27 1020.71 1021.02 1021.22 1021.36 1021.45 1021.52 1021.60 1021.69 1021.79 1021.90 1021.98 1022.02 1021.98 1021.85 1021.60 1021.22 1020.72 1020.10 1019.41 1018.67 1017.92 1017.20 1016.55 1016.00 1015.57 1015.26 1015.09 1015.04 1015.08 1015.19 1015.34 1015.50 1015.64 1015.73 1015.77 1015.75 1015.67 1015.53 1015.35
Thickness
5334 5316 5299 5282 5266 5252 5239 5226 5214 5201 5188 5175 5162 5149 5137 5129 5123 5121 5120 5120 5120 5122 5124 5127 5131 5137 5145 5154 5164 5176 5187 5200 5215 5233 5248 5264 5282 5303 5327 5352 5380 5409 5439
5330 5313 5296 5280 5265 5251 5238 5226 5213 5201 5188 5176 5163 5150 5138 5128 5121 5118 5118 5117 5117 5118 5121 5124 5129 5137 5144 5154 5163 5173 5184 5195 5208 5223 5240 5256 5274 5295 5319 5345 5374 5403 5431
5327 5311 5295 5279 5264 5251 5239 5227 5214 5202 5189 5177 5165 5152 5140 5129 5121 5117 5115 5114 5113 5114 5117 5120 5125 5132 5141 5151 5160 5170 5179 5191 5203 5216 5232 5248 5267 5287 5310 5339 5368 5396 5423
5326 5310 5294 5279 5263 5250 5239 5228 5216 5204 5192 5179 5167 5155 5143 5133 5123 5118 5114 5111 5110 5111 5113 5116 5121 5128 5137 5146 5157 5165 5175 5186 5199 5212 5227 5242 5259 5278 5300 5328 5359 5388 5416
5326 5310 5293 5277 5262 5250 5239 5229 5218 5207 5194 5182 5171 5159 5148 5137 5127 5123 5115 5112 5110 5109 5110 5113 5118 5126 5134 5143 5152 5160 5169 5180 5193 5208 5222 5236 5251 5268 5289 5314 5343 5377 5410
5326 5309 5292 5277 5262 5251 5241 5232 5221 5210 5198 5186 5174 5164 5154 5144 5134 5128 5120 5116 5114 5112 5112 5114 5118 5125 5133 5141 5149 5157 5165 5175 5187 5201 5215 5228 5242 5259 5281 5305 5331 5361 5399
5326 5309 5293 5277 5264 5253 5244 5235 5225 5215 5204 5191 5181 5172 5162 5153 5143 5136 5128 5123 5120 5117 5116 5117 5121 5126 5134 5142 5149 5157 5164 5174 5184 5195 5209 5222 5236 5254 5274 5298 5321 5346 5377
5328 5311 5295 5279 5266 5255 5247 5238 5229 5220 5209 5199 5189 5180 5171 5162 5152 5144 5137 5130 5127 5123 5121 5121 5124 5130 5137 5146 5152 5159 5167 5176 5183 5193 5205 5218 5233 5250 5269 5291 5314 5340 5371
5331 5315 5299 5283 5270 5259 5250 5243 5235 5225 5216 5207 5198 5188 5179 5170 5161 5153 5146 5138 5135 5131 5129 5128 5130 5135 5142 5150 5155 5162 5170 5179 5186 5195 5207 5218 5233 5248 5267 5287 5310 5335 5369
5336 5319 5303 5288 5275 5265 5256 5247 5238 5230 5222 5214 5205 5196 5188 5179 5171 5162 5154 5148 5143 5140 5138 5137 5138 5143 5148 5153 5158 5165 5173 5181 5188 5198 5209 5220 5233 5249 5266 5283 5302 5325 5352
5339 5323 5308 5294 5281 5270 5260 5251 5243 5234 5227 5219 5211 5205 5198 5192 5183 5172 5164 5157 5151 5149 5146 5146 5147 5150 5153 5157 5162 5167 5174 5182 5190 5199 5211 5223 5236 5251 5267 5284 5301 5319 5340
5342 5327 5314 5300 5287 5274 5265 5256 5248 5240 5233 5227 5220 5214 5208 5202 5194 5184 5175 5167 5160 5156 5154 5153 5154 5156 5159 5162 5167 5172 5178 5185 5192 5201 5212 5224 5237 5252 5269 5286 5303 5320 5337
5346 5332 5319 5306 5293 5281 5270 5261 5254 5246 5238 5233 5228 5221 5215 5210 5203 5195 5185 5176 5169 5164 5161 5160 5161 5163 5165 5168 5173 5177 5182 5188 5194 5202 5212 5224 5237 5253 5272 5290 5308 5325 5342
5350 5337 5324 5311 5299 5287 5276 5266 5257 5250 5242 5238 5233 5225 5220 5215 5209 5202 5194 5186 5178 5173 5170 5169 5169 5170 5172 5175 5179 5183 5187 5192 5197 5204 5214 5227 5241 5258 5275 5292 5311 5328 5346
5354 5341 5327 5314 5303 5291 5281 5270 5261 5252 5245 5239 5233 5226 5222 5217 5211 5205 5199 5193 5186 5180 5177 5176 5177 5178 5180 5183 5185 5189 5193 5198 5203 5210 5220 5231 5245 5260 5277 5293 5310 5327 5342
5357 5345 5332 5319 5306 5293 5283 5274 5265 5255 5248 5240 5233 5227 5222 5217 5213 5209 5204 5198 5193 5188 5184 5182 5182 5183 5184 5186 5189 5193 5197 5202 5207 5215 5224 5235 5247 5261 5276 5292 5308 5323 5337
5361 5349 5336 5323 5310 5297 5285 5275 5267 5259 5251 5244 5237 5231 5226 5221 5217 5213 5209 5205 5200 5195 5192 5188 5186 5187 5188 5190 5193 5196 5200 5205 5211 5219 5228 5237 5248 5261 5274 5289 5303 5318 5331
5364 5351 5339 5327 5314 5302 5289 5279 5270 5262 5256 5250 5242 5235 5230 5226 5221 5217 5213 5209 5206 5203 5199 5195 5193 5191 5192 5194 5197 5200 5203 5209 5214 5221 5229 5238 5248 5259 5271 5284 5297 5310 5324
5368 5356 5343 5331 5318 5306 5293 5282 5274 5265 5258 5252 5246 5240 5234 5230 5225 5220 5216 5212 5209 5206 5204 5201 5199 5197 5196 5197 5200 5202 5206 5211 5215 5221 5229 5237 5246 5256 5266 5278 5290 5302 5316
5372 5359 5347 5335 5323 5310 5298 5287 5277 5269 5261 5256 5250 5243 5238 5234 5229 5223 5218 5214 5211 5209 5207 5206 5204 5203 5202 5202 5202 5205 5208 5213 5217 5222 5228 5234 5242 5251 5260 5271 5281 5293 5305
5376 5363 5350 5338 5326 5314 5302 5291 5280 5271 5264 5258 5252 5245 5240 5236 5230 5224 5220 5217 5214 5211 5210 5209 5209 5208 5207 5207 5206 5207 5208 5212 5216 5220 5225 5230 5237 5245 5253 5262 5272 5283 5294
5379 5366 5353 5341 5329 5317 5306 5295 5283 5273 5266 5260 5254 5248 5242 5237 5232 5227 5223 5219 5216 5214 5212 5212 5212 5212 5212 5211 5210 5210 5211 5212 5214 5217 5221 5226 5231 5238 5245 5253 5261 5271 5281
5382 5368 5355 5343 5332 5320 5309 5298 5287 5277 5269 5262 5256 5250 5245 5239 5234 5229 5225 5222 5219 5217 5216 5215 5215 5215 5215 5214 5214 5213 5212 5212 5212 5213 5216 5220 5225 5231 5236 5243 5250 5258 5267
5384 5371 5359 5347 5335 5324 5313 5302 5291 5280 5271 5263 5257 5252 5246 5240 5236 5231 5228 5224 5222 5220 5219 5218 5218 5218 5218 5218 5217 5216 5214 5211 5209 5209 5209 5213 5217 5223 5228 5233 5239 5245 5254
5386 5373 5361 5350 5339 5328 5317 5305 5294 5283 5273 5265 5258 5253 5247 5242 5238 5233 5230 5227 5224 5223 5222 5221 5221 5221 5221 5221 5220 5219 5216 5212 5209 5206 5204 5206 5209 5213 5218 5223 5229 5235 5242
5388 5376 5364 5352 5342 5331 5320 5309 5298 5287 5276 5267 5260 5254 5248 5244 5239 5235 5231 5228 5225 5224 5224 5224 5223 5223 5223 5224 5223 5222 5219 5215 5209 5203 5200 5200 5202 5206 5210 5216 5221 5227 5232